Wind_Speed
42 35 28 23 17 13 28 29 26 27 28 19 18 17 19 17 22 21 23 20 15 10 10 8 5 2 3 5 10 16 20 23 21 18 17 16 18 19 19 16 11 16 17 19 19 19 16 13 8
44 44 34 26 20 19 34 31 27 22 26 21 18 17 18 15 14 21 18 16 12 9 4 4 4 3 5 8 14 18 21 22 19 17 16 19 21 22 22 14 15 19 19 20 22 18 15 9 4
47 46 43 36 32 30 39 32 26 24 25 26 20 14 20 19 10 16 15 13 9 6 4 6 4 9 11 13 21 25 24 18 18 18 18 21 21 18 15 13 19 23 23 24 18 13 8 4 2
51 48 45 43 40 32 33 28 24 24 27 26 21 14 15 9 5 7 5 6 9 10 10 7 9 9 15 19 22 21 15 17 18 19 19 21 18 19 20 20 22 20 19 17 16 12 8 2 5
50 47 44 44 42 38 32 27 24 29 26 19 18 12 8 5 3 4 6 6 10 12 13 12 11 17 21 27 22 16 17 17 20 20 19 17 17 20 24 25 19 18 18 16 12 6 4 8 12
51 45 43 40 45 43 38 35 30 21 19 20 15 13 6 5 2 5 6 10 13 16 19 24 26 28 28 22 22 18 18 19 19 18 17 18 25 27 24 21 21 20 12 6 1 10 13 15 22
40 48 43 42 37 33 29 26 22 21 16 11 10 10 8 7 9 12 14 15 20 24 26 25 25 23 20 16 13 13 14 14 14 14 16 21 30 22 17 21 21 8 3 5 16 20 23 27 26
34 36 42 45 46 40 35 31 28 17 8 6 5 1 3 5 8 11 10 9 10 12 12 12 13 12 8 5 7 9 10 9 10 18 23 26 25 20 21 19 7 7 10 21 26 29 29 29 28
28 30 31 36 41 43 40 35 30 23 21 20 19 17 16 14 12 14 14 13 14 13 7 12 10 5 3 3 5 7 8 10 17 21 24 23 17 20 21 12 12 16 23 29 30 32 32 30 26
22 26 27 26 28 36 39 40 34 33 33 36 35 32 32 30 30 29 32 32 32 30 23 9 12 7 8 5 6 5 8 12 15 20 16 16 19 23 24 18 21 27 31 32 33 34 33 29 25
14 20 22 22 20 26 31 32 34 39 38 40 40 37 39 38 38 39 41 39 41 37 33 31 27 20 12 8 7 8 9 12 16 10 14 18 23 24 26 22 25 29 33 32 35 34 33 28 24
10 12 18 17 15 18 23 23 28 26 30 31 34 37 38 32 36 38 40 42 43 45 40 38 33 28 20 13 11 9 10 12 12 11 16 21 26 23 25 26 28 30 32 36 33 30 27 24 21
7 9 12 13 10 9 10 17 22 19 20 24 26 24 24 27 32 36 35 36 37 41 43 39 36 32 25 24 18 15 13 13 12 14 19 22 27 26 24 26 26 27 28 29 30 26 21 20 18
3 3 5 4 5 7 8 6 14 17 16 13 13 16 23 18 18 29 36 32 33 35 39 40 37 32 30 27 22 20 16 14 14 18 19 20 24 26 26 24 22 23 23 23 22 22 20 18 15
5 8 6 0 6 4 3 4 2 11 12 13 11 10 10 17 15 17 26 29 30 28 31 36 36 34 31 28 26 22 17 17 16 18 19 19 19 22 24 24 22 20 19 17 15 16 14 12 10
15 11 9 5 5 6 6 3 3 3 4 8 9 11 10 7 8 13 22 25 32 28 25 27 30 32 31 29 26 23 22 18 15 17 17 17 17 20 21 22 21 20 18 15 13 12 11 8 5
20 22 14 10 11 13 11 10 6 8 7 5 5 6 7 6 6 12 16 20 24 29 24 21 23 25 25 27 25 24 22 20 16 16 14 14 16 19 21 20 21 21 18 17 15 14 14 13 10
30 25 20 19 17 18 17 16 15 12 13 13 10 6 4 5 5 10 13 16 20 23 27 19 17 18 20 21 21 22 22 21 18 16 14 12 15 17 18 20 18 19 18 17 15 14 12 13 15
35 35 33 25 21 22 23 22 17 17 16 15 16 13 10 7 8 7 14 13 17 19 23 23 17 13 13 17 19 17 19 19 18 16 15 13 14 13 14 14 16 14 12 14 11 12 12 15 15
38 36 35 34 32 27 28 28 25 19 19 19 20 17 16 16 13 12 13 14 14 13 17 19 18 14 10 9 12 12 14 16 16 14 13 13 14 13 12 10 9 10 10 11 13 11 10 11 12
45 43 40 37 36 35 33 34 31 30 25 24 23 23 23 24 23 19 23 21 15 14 15 16 13 15 12 10 9 7 7 9 11 13 11 9 11 10 8 7 5 4 4 6 10 10 10 10 10
48 49 46 44 43 43 40 39 36 37 38 36 33 33 32 32 33 33 31 27 22 20 15 15 14 13 15 12 10 11 7 3 8 8 7 6 3 1 3 5 6 3 4 4 4 6 8 9 8
54 52 53 51 50 49 46 46 43 43 44 44 42 41 39 39 36 37 36 35 30 25 24 20 17 16 20 18 14 10 8 8 1 7 7 5 3 4 7 8 6 4 3 5 4 2 3 4 6
59 58 58 60 58 54 53 54 50 50 48 47 47 48 43 42 39 39 38 34 30 30 29 26 19 21 23 23 18 17 12 12 11 5 3 0 5 1 5 7 7 7 7 6 8 7 3 2 4
68 67 66 64 64 63 58 58 57 55 55 54 52 51 49 46 36 37 33 36 35 30 36 35 27 25 25 26 22 20 16 18 16 13 9 6 7 5 6 7 9 10 10 10 9 9 9 7 5
73 74 73 71 70 69 66 62 61 61 60 61 60 58 58 45 42 44 40 40 35 35 44 41 34 35 30 27 29 30 23 17 21 20 20 11 10 10 11 13 12 13 14 14 13 12 12 10 10
77 76 77 77 75 74 69 67 65 64 64 64 64 64 58 39 40 38 40 42 47 48 50 47 47 42 45 42 37 36 39 31 29 28 26 22 18 16 20 20 22 20 17 17 16 15 15 17 16
85 84 83 83 82 80 77 74 72 72 70 70 69 66 60 61 56 62 61 54 49 51 51 53 57 56 55 55 52 50 48 42 42 40 37 33 27 33 31 31 25 28 24 22 19 17 18 19 19
82 83 84 85 85 84 83 81 80 79 78 76 73 68 61 50 38 44 56 58 54 56 61 66 68 68 67 67 64 64 59 59 62 58 54 52 41 34 36 39 34 27 30 26 25 21 19 23 23
75 77 78 81 83 83 81 80 77 77 76 76 75 72 72 72 72 65 50 53 63 66 64 67 72 74 75 76 76 74 73 68 67 69 64 62 61 55 52 44 44 36 36 34 32 27 24 24 27
Wind_Direction
58 65 78 89 86 152 175 176 163 159 167 157 157 140 130 131 151 149 153 160 142 123 106 150 141 92 9 6 342 345 345 337 328 315 321 328 336 344 341 339 336 340 333 313 323 313 312 318 321
53 62 70 73 75 104 145 157 162 157 153 160 158 147 137 147 134 154 144 139 151 152 164 172 234 283 317 333 346 337 335 333 322 320 321 334 339 341 341 336 329 322 318 312 314 313 317 309 319
49 51 56 66 70 111 133 141 170 174 157 162 154 144 132 147 143 155 151 160 168 177 211 256 305 321 289 306 327 327 320 336 333 325 326 331 336 334 348 339 334 322 318 312 310 306 326 325 251
49 53 52 65 80 101 137 137 120 148 156 157 143 141 128 133 130 176 164 240 237 232 223 278 262 297 306 312 321 320 318 339 335 326 327 331 331 332 335 327 318 316 315 310 301 290 287 205 159
55 53 60 65 84 87 99 116 128 133 141 131 134 125 124 141 166 196 221 223 230 244 262 276 268 283 302 308 314 323 332 330 329 331 331 333 345 338 336 335 327 326 312 300 290 296 172 150 142
60 60 60 72 82 93 90 95 98 103 112 116 114 129 126 152 274 244 251 241 249 259 281 283 282 284 294 301 308 317 317 316 326 329 338 344 339 337 335 326 329 320 313 291 172 136 137 134 129
60 65 66 70 79 87 92 82 100 119 120 133 136 156 176 235 246 273 280 276 276 280 281 283 283 283 287 289 309 320 321 331 332 345 337 341 342 340 340 342 328 338 341 106 127 128 128 127 130
61 68 66 72 79 79 76 81 73 76 95 99 100 70 11 337 317 310 312 312 313 312 301 300 290 285 265 297 332 338 342 354 356 347 339 342 341 346 352 342 7 78 109 122 124 126 124 126 125
57 63 62 67 79 78 81 78 75 74 79 78 77 76 78 78 73 68 56 49 44 25 353 341 304 260 310 345 357 3 11 349 341 342 341 343 360 3 10 44 83 105 120 124 125 125 125 126 126
67 66 60 54 59 78 82 83 86 89 91 88 88 86 80 80 75 69 62 58 55 54 55 61 35 72 89 58 31 22 324 326 346 351 358 19 22 23 34 62 98 116 125 128 124 127 127 126 118
76 62 62 61 53 62 74 85 91 89 88 85 80 77 73 70 66 64 61 59 54 53 58 58 53 51 59 64 47 25 360 348 357 13 28 38 39 40 52 77 103 117 126 125 127 129 128 125 120
80 69 75 68 64 63 71 72 87 81 85 85 80 75 68 63 69 62 60 56 52 46 50 56 55 56 53 51 44 35 16 30 55 31 52 50 59 56 59 84 101 115 123 128 126 128 127 120 115
49 52 58 64 59 50 79 80 83 77 74 83 75 71 69 60 65 59 55 54 53 45 44 50 55 55 52 50 50 50 54 63 52 61 65 59 68 79 77 83 98 110 119 125 126 120 119 110 107
178 253 63 43 20 24 55 81 66 80 76 68 53 59 73 57 41 55 47 51 46 46 43 43 47 52 56 51 48 50 52 50 65 75 69 63 70 80 92 96 104 112 116 119 122 119 118 115 114
242 235 212 197 304 338 10 63 105 53 56 54 53 45 48 63 64 34 30 46 33 44 41 40 40 41 48 53 50 51 54 51 69 81 74 66 73 80 89 97 107 111 111 111 117 119 114 119 123
207 232 266 262 265 279 281 196 234 295 356 42 40 26 24 36 351 354 15 15 20 24 39 42 41 38 40 47 48 52 52 57 71 81 79 75 76 84 86 92 96 100 105 109 111 113 113 118 133
237 242 242 252 244 258 265 260 239 249 259 287 350 3 4 16 347 336 344 3 6 11 21 35 36 39 39 39 45 49 56 57 67 86 83 84 84 89 86 87 92 94 96 102 102 103 101 93 82
244 250 250 251 253 254 254 259 254 253 278 264 279 301 332 320 314 335 334 337 350 358 5 15 29 27 37 39 38 42 51 61 61 78 92 95 96 94 83 78 88 91 90 91 91 88 80 74 68
242 247 249 244 249 251 249 246 249 256 265 268 270 274 270 240 270 299 316 341 346 352 3 356 2 11 28 38 33 37 42 53 64 67 78 97 109 116 94 74 72 86 87 75 89 87 76 68 67
243 245 252 254 248 243 237 234 238 245 244 254 260 270 258 268 246 251 286 310 332 336 347 345 350 355 346 13 29 33 40 35 44 69 80 95 114 115 106 88 68 79 97 84 89 89 83 75 61
244 242 245 248 250 251 246 239 247 260 261 250 248 255 260 264 265 269 281 297 307 321 334 328 325 332 336 315 341 15 52 61 52 42 59 85 107 109 110 110 116 88 100 112 88 94 92 88 71
252 250 250 254 252 251 250 250 256 261 266 265 263 267 272 264 266 275 284 286 285 287 298 302 294 301 306 309 290 317 344 74 100 97 79 77 91 183 95 128 135 117 131 145 123 100 108 108 99
253 256 259 257 257 256 254 255 255 255 260 264 268 268 269 275 275 277 276 277 279 278 282 277 272 285 296 286 278 259 285 296 142 116 124 116 125 184 237 259 265 240 231 201 196 176 137 145 139
256 257 257 261 257 256 260 262 261 262 262 261 262 266 266 270 273 277 280 277 276 272 266 253 263 276 273 268 258 263 253 244 258 228 166 190 164 213 228 224 231 247 240 242 235 235 216 160 155
258 259 260 260 262 262 261 265 267 270 270 272 272 270 269 271 272 277 278 271 279 271 264 249 246 256 262 258 250 239 238 246 244 248 248 281 258 228 256 244 243 232 233 235 242 247 250 232 231
259 261 262 262 263 262 263 264 267 268 270 271 272 273 274 271 273 276 272 267 260 245 257 259 241 251 245 246 257 251 235 237 251 233 238 234 243 264 296 294 268 239 237 237 245 252 252 248 245
258 259 261 263 263 264 264 265 264 265 267 269 270 272 273 262 259 266 254 265 264 257 249 250 247 248 248 246 245 246 244 237 230 245 238 234 235 252 277 288 285 277 249 236 239 245 246 256 257
256 258 260 261 262 263 264 264 265 265 264 264 265 266 264 262 259 237 248 257 252 253 246 241 244 248 250 252 247 247 246 248 243 238 248 236 247 270 269 277 274 269 266 260 252 254 261 257 258
257 258 259 260 260 261 262 263 263 263 264 264 265 263 258 251 234 236 242 245 245 243 252 251 245 245 249 250 250 251 248 250 256 251 249 246 252 252 256 273 276 260 258 256 256 260 274 273 277
256 257 258 259 260 261 262 262 262 262 261 261 262 262 261 260 258 244 242 237 239 244 243 248 249 250 252 257 254 249 251 253 254 255 256 251 249 250 250 259 266 259 254 254 253 255 271 275 270
Height
10937 10934 10933 10934 10935 10934 10938 10948 10954 10962 10967 10970 10972 10975 10978 10981 10983 10984 10984 10987 10989 10989 10990 10991 10991 10991 10990 10989 10989 10988 10986 10984 10982 10981 10979 10977 10976 10974 10973 10971 10969 10968 10967 10965 10963 10962 10962 10963 10962
10941 10939 10939 10937 10935 10934 10940 10951 10957 10964 10969 10974 10976 10978 10981 10983 10985 10987 10988 10989 10990 10990 10991 10991 10991 10990 10989 10988 10987 10987 10985 10983 10980 10978 10977 10976 10974 10972 10969 10968 10966 10964 10963 10963 10960 10959 10959 10960 10961
10948 10945 10943 10942 10939 10942 10949 10956 10962 10968 10971 10975 10979 10982 10983 10986 10989 10990 10990 10991 10993 10993 10993 10991 10991 10990 10989 10987 10986 10985 10983 10980 10978 10976 10975 10973 10971 10970 10967 10966 10964 10961 10959 10957 10956 10956 10957 10957 10959
10959 10956 10951 10948 10950 10954 10960 10964 10967 10973 10976 10980 10982 10986 10988 10989 10990 10992 10992 10992 10992 10992 10991 10991 10989 10989 10988 10987 10985 10983 10981 10978 10977 10975 10974 10971 10969 10966 10964 10961 10960 10957 10954 10952 10951 10952 10954 10956 10958
10970 10967 10960 10962 10960 10963 10970 10973 10974 10977 10982 10985 10988 10990 10991 10991 10992 10992 10992 10993 10992 10991 10990 10989 10988 10987 10986 10984 10983 10980 10978 10976 10975 10974 10972 10969 10967 10964 10961 10957 10955 10953 10950 10948 10946 10947 10951 10955 10958
10982 10979 10976 10973 10970 10971 10975 10979 10983 10986 10987 10989 10991 10992 10994 10995 10994 10993 10993 10993 10991 10990 10990 10988 10986 10985 10984 10981 10980 10978 10976 10975 10974 10972 10971 10968 10964 10961 10957 10953 10951 10948 10945 10944 10944 10946 10949 10954 10959
10994 10990 10987 10982 10980 10979 10983 10985 10987 10989 10991 10991 10992 10994 10995 10995 10996 10994 10993 10992 10990 10989 10987 10985 10983 10981 10980 10979 10978 10977 10975 10973 10973 10971 10969 10965 10962 10958 10955 10950 10946 10944 10942 10942 10944 10948 10952 10957 10962
11001 11000 10998 10993 10991 10989 10988 10991 10994 10995 10996 10996 10997 10997 10996 10996 10996 10995 10993 10990 10988 10985 10981 10980 10978 10977 10977 10976 10977 10976 10975 10974 10973 10970 10967 10964 10961 10956 10952 10948 10943 10942 10942 10943 10946 10951 10956 10961 10965
11006 11005 11007 11006 11002 10999 10995 10997 10999 11000 11001 11001 11000 10999 10999 10999 10999 10997 10995 10993 10988 10982 10978 10978 10976 10975 10975 10976 10976 10976 10975 10974 10972 10970 10967 10964 10959 10954 10951 10946 10942 10942 10945 10948 10952 10954 10959 10964 10968
11011 11010 11010 11011 11012 11007 11002 11001 11007 11007 11007 11005 11004 11005 11005 11004 11002 10998 10995 10993 10989 10984 10980 10979 10976 10975 10975 10976 10976 10977 10976 10975 10973 10970 10967 10964 10959 10954 10950 10945 10944 10945 10948 10952 10955 10959 10963 10968 10971
11016 11013 11013 11015 11016 11015 11013 11012 11014 11013 11011 11011 11010 11009 11008 11006 11004 11003 11000 10996 10993 10990 10987 10983 10980 10978 10977 10977 10977 10977 10976 10975 10973 10971 10968 10965 10959 10955 10952 10950 10949 10951 10954 10958 10960 10963 10966 10969 10972
11020 11018 11016 11017 11019 11020 11022 11021 11020 11019 11017 11016 11014 11013 11012 11013 11010 11008 11004 10999 10998 10996 10991 10986 10984 10981 10981 10980 10979 10978 10977 10975 10975 10973 10971 10968 10963 10960 10959 10956 10957 10959 10961 10961 10965 10970 10972 10973 10975
11018 11019 11018 11019 11021 11021 11024 11026 11022 11021 11020 11021 11018 11017 11017 11017 11015 11011 11007 11005 11002 11001 10996 10992 10989 10987 10986 10984 10982 10980 10979 10978 10977 10976 10973 10972 10968 10967 10967 10966 10967 10968 10969 10971 10970 10973 10976 10978 10980
11020 11021 11020 11021 11023 11023 11024 11025 11024 11023 11023 11021 11021 11021 11020 11018 11017 11014 11012 11009 11007 11006 11003 10999 10995 10992 10990 10987 10985 10984 10983 10982 10980 10979 10977 10977 10975 10973 10973 10973 10974 10975 10976 10977 10978 10978 10980 10981 10983
11018 11020 11020 11021 11022 11021 11022 11022 11023 11024 11025 11025 11023 11021 11022 11020 11018 11018 11016 11014 11012 11010 11008 11005 11001 10998 10995 10991 10990 10987 10986 10986 10984 10983 10982 10982 10982 10980 10978 10978 10979 10980 10981 10982 10984 10983 10984 10985 10986
11019 11019 11018 11018 11019 11020 11021 11022 11022 11023 11025 11025 11024 11023 11023 11023 11020 11019 11019 11016 11015 11013 11011 11008 11006 11003 11000 10997 10994 10992 10990 10988 10988 10987 10986 10987 10987 10986 10985 10984 10983 10983 10985 10985 10987 10987 10987 10988 10988
11016 11017 11018 11019 11018 11018 11019 11020 11021 11022 11024 11024 11024 11023 11022 11023 11021 11020 11020 11019 11017 11016 11013 11011 11009 11007 11005 11002 10999 10997 10994 10992 10990 10990 10991 10992 10991 10991 10990 10990 10988 10988 10988 10988 10989 10989 10989 10989 10989
11012 11013 11015 11016 11016 11017 11018 11019 11019 11020 11021 11021 11022 11023 11022 11021 11021 11021 11021 11020 11019 11018 11016 11014 11012 11011 11008 11006 11004 11002 10999 10996 10994 10993 10993 10995 10995 10995 10995 10994 10993 10994 10994 10994 10993 10993 10993 10992 10992
11007 11009 11010 11013 11014 11015 11015 11017 11017 11016 11017 11017 11019 11021 11022 11022 11020 11020 11020 11020 11018 11017 11017 11015 11014 11012 11011 11009 11007 11005 11004 11001 10999 10997 10996 10997 10997 10998 10998 10998 10997 10997 10998 10998 10997 10997 10997 10996 10995
11000 11001 11003 11006 11010 11011 11012 11013 11014 11015 11015 11014 11013 11015 11017 11018 11018 11018 11018 11017 11018 11016 11014 11015 11014 11013 11012 11010 11008 11006 11006 11006 11003 11000 11000 10999 11000 11000 11000 11000 11001 11000 11000 11000 10999 10999 10998 10997 10997
10989 10994 10996 11000 11001 11004 11007 11008 11010 11009 11010 11009 11010 11011 11011 11012 11012 11013 11014 11013 11014 11015 11014 11013 11013 11012 11012 11012 11009 11007 11005 11004 11004 11005 11005 11003 11001 11001 11001 11000 11001 11002 11002 11001 11000 11000 11000 10999 10999
10981 10983 10987 10990 10992 10995 10999 11002 11005 11004 11003 11005 11006 11007 11005 11008 11007 11007 11008 11009 11008 11010 11011 11011 11009 11010 11010 11012 11011 11010 11007 11003 11002 11003 11004 11005 11006 11005 11003 11002 11002 11001 11001 11002 11002 11000 11000 10999 10999
10973 10975 10974 10979 10982 10984 10989 10992 10996 10998 10997 10998 10999 11000 11000 11000 11002 11001 11000 11000 11002 11003 11004 11005 11006 11005 11006 11006 11007 11006 11007 11006 11002 11000 11001 11002 11003 11003 11004 11005 11005 11004 11002 11001 11002 11002 11001 11001 10999
10962 10964 10967 10966 10969 10976 10980 10979 10985 10986 10989 10990 10992 10991 10993 10992 10992 10993 10993 10994 10995 10997 10996 10997 10997 10998 10999 11000 11001 11002 11002 11002 11002 11001 11000 11000 10999 11001 11002 11001 11002 11003 11004 11003 11001 11001 11001 11001 11001
10947 10949 10953 10958 10959 10963 10971 10972 10974 10976 10977 10978 10979 10980 10982 10984 10983 10984 10986 10986 10989 10988 10985 10988 10988 10988 10991 10993 10994 10995 10995 10997 10998 10998 10998 10999 10998 10997 10997 10998 10999 10998 10999 11001 11002 11001 11000 10999 10999
10931 10931 10936 10941 10945 10950 10957 10964 10964 10965 10967 10966 10968 10968 10968 10974 10974 10971 10975 10975 10977 10978 10975 10977 10979 10980 10982 10983 10986 10989 10989 10990 10992 10991 10992 10991 10994 10996 10996 10996 10995 10995 10994 10995 10996 10999 11000 10999 10999
10913 10915 10917 10921 10927 10932 10942 10947 10951 10953 10954 10954 10954 10955 10958 10962 10964 10959 10959 10961 10964 10967 10965 10966 10967 10969 10973 10973 10974 10977 10980 10980 10983 10985 10985 10986 10987 10989 10991 10992 10992 10991 10990 10990 10991 10992 10994 10994 10996
10893 10899 10901 10904 10909 10915 10922 10927 10931 10933 10936 10936 10939 10941 10943 10945 10950 10949 10949 10950 10953 10951 10952 10953 10955 10955 10957 10959 10961 10965 10967 10970 10973 10976 10977 10978 10978 10981 10982 10983 10984 10986 10985 10986 10986 10986 10987 10989 10990
10878 10880 10883 10885 10890 10895 10899 10906 10912 10912 10915 10919 10921 10925 10926 10928 10930 10929 10931 10938 10937 10936 10936 10935 10936 10937 10939 10943 10945 10948 10952 10956 10958 10962 10964 10966 10968 10970 10971 10972 10976 10976 10978 10979 10980 10981 10982 10982 10984
10861 10862 10865 10865 10868 10873 10879 10884 10890 10892 10895 10897 10898 10901 10902 10907 10911 10915 10914 10918 10918 10914 10914 10914 10914 10918 10921 10924 10927 10928 10931 10936 10940 10942 10945 10948 10952 10955 10958 10961 10963 10966 10968 10970 10972 10973 10974 10976 10977